YO8SKY Suceava RO current weather conditions

sailwx.info

Wind from 202 at 0 knots gusting 2

Air temperature 27.8° C
Dewpoint 14.4° C

Last reported at 2018-May-26 08:56 UTC.
Time now 2018-May-26 09:56 UTC

Location: N 47°37' E 026°18'.
View on Google Maps.

See reports from other nearby stations

  
Tides and Currents Weather Stations Pressure Air Temp Water Temp Dewpoint Dewpoint Depression Visibility Wind Speed Wind Dir Waves Ship Positions
date/time (UTC)wind fromknots sea level pressurealtimeterstation pressurevisibilityair tempwater tempwave heightnotes
2018-May-26 08:56 202 0 gusting 2 27.8
2018-May-26 08:47 180 27.8
2018-May-26 08:29 180 1 gusting 3 27.8
2018-May-26 08:11 135 27.2
2018-May-26 07:53 225 0 gusting 1 26.7
2018-May-26 07:26 135 0 gusting 1 24.4
2018-May-26 07:17 315 23.3
2018-May-26 07:08 225 0 gusting 2 23.3
2018-May-26 06:59 135 23.9
2018-May-26 06:32 292 22.2
2018-May-26 06:23 315 22.2
2018-May-26 06:14 315 21.7
2018-May-26 05:56 180 20.0
2018-May-26 05:47 225 19.4
2018-May-26 05:29 315 0 gusting 2 18.3
2018-May-25 20:31 045 20.0
2018-May-25 18:02 315 0 gusting 1 21.7
2018-May-25 17:53 315 21.7
2018-May-25 17:35 045 22.8
2018-May-25 17:26 135 23.3
2018-May-25 17:17 135 23.9
2018-May-25 17:08 180 24.4
2018-May-25 16:59 360 25.0
2018-May-25 16:50 180 25.6
2018-May-25 16:32 135 27.8
2018-May-25 16:05 090 30.6
2018-May-25 15:56 225 30.0
2018-May-25 15:47 135 0 gusting 2 30.6
2018-May-25 15:02 090 30.6
2018-May-25 14:44 135 31.7
2018-May-25 12:01 180 0 gusting 2 29.4
2018-May-25 11:52 045 0 gusting 1 29.4
2018-May-25 11:43 180 29.4
2018-May-25 11:25 135 2 gusting 4 28.3
2018-May-25 11:07 135 0 gusting 3 30.0
2018-May-25 10:31 270 28.3
2018-May-25 10:13 090 0 gusting 6 27.8
2018-May-25 06:03 270 20.6
2018-May-25 05:45 315 19.4
2018-May-25 05:18 315 3 gusting 7 17.8
2018-May-24 17:11 315 0 gusting 1 27.2
2018-May-24 17:02 315 29.4
2018-May-24 16:44 180 31.1
2018-May-24 15:59 135 32.2
2018-May-24 15:41 135 32.2
2018-May-24 15:32 135 0 gusting 2 32.2
2018-May-24 15:23 270 32.2
2018-May-24 15:05 135 0 gusting 2 32.8
2018-May-24 14:56 360 32.8
2018-May-24 14:38 315 32.2
2018-May-24 14:29 360 31.7
2018-May-24 14:11 180 30.6
2018-May-24 14:02 180 32.2
2018-May-24 13:26 180 32.8
2018-May-24 13:17 135 30.6
2018-May-24 13:08 135 29.4
2018-May-24 12:50 180 32.2
2018-May-24 12:41 270 29.4
2018-May-24 12:32 180 2 gusting 5 29.4
2018-May-24 12:23 135 30.6
2018-May-24 12:05 045 0 gusting 6 28.9
2018-May-24 11:56 135 1 gusting 4 29.4